Hourly Data Report for May 01, 2012

All times are specified in Local Standard Time (LST). Add 1 hour to adjust for Daylight Saving Time where and when it is observed.

ST. JOHN'S INTL A
NEWFOUNDLAND

47°37'07.000" N
52°45'09.000" W
140.50 m
8403505
71801
YYT

Download Data

Hourly Data (May 2012)
Hourly Data Report for May 1, 2012
Temp Definition
°C
Dew Point Temp Definition
°C
Rel Hum Definition
%
Wind Dir Definition
10's deg

Wind Spd Definition
km/h
Visibility Definition
km
Stn Press Definition
kPa
Hmdx Definition


Wind Chill Definition


Weather Definition


TIME
00:30 Legend Double Dagger -0.6 -1.7 92 36 12 10.0 100.28   -5 LegendNANA
01:30 Legend Double Dagger -1.4 -2.4 93 34 9 10.0 100.28   -5 LegendNANA
02:30 Legend Double Dagger -1.2 -1.6 97 8 5 3.2 100.34   -3 Fog
03:30 Legend Double Dagger -0.4 -0.5 99 6 6 9.7 100.37   -2 Fog
04:30 Legend Double Dagger -0.2 -0.9 95 6 8 10.0 100.38   -3 LegendNANA
05:30 Legend Double Dagger 0.2 -0.7 94 8 8 10.0 100.48     Mostly Cloudy
06:30 Legend Double Dagger 0.8 -0.4 92 7 9 10.0 100.52     LegendNANA
07:30 Legend Double Dagger 1.4 -0.4 88 5 8 10.0 100.57     LegendNANA
08:30 Legend Double Dagger 2.0 -0.9 81 1 7 10.0 100.62     Mostly Cloudy
09:30 Legend Double Dagger 3.3 -1.8 69 7 12 10.0 100.64     LegendNANA
10:30 Legend Double Dagger 4.2 -5.6 49 4 14 10.0 100.63     LegendNANA
11:30 Legend Double Dagger 4.7 -1.7 63 6 20 10.0 100.60     Mainly Clear
12:30 Legend Double Dagger 5.1 -2.5 58 5 25 10.0 100.56     LegendNANA
13:30 Legend Double Dagger 4.5 -0.7 69 5 22 10.0 100.55     LegendNANA
14:30 Legend Double Dagger 3.8 -1.0 71 3 24 10.0 100.52     Mainly Clear
15:30 Legend Double Dagger 3.0 -0.5 78 4 19 10.0 100.53     LegendNANA
16:30 Legend Double Dagger 1.7 -1.0 82 5 21 10.0 100.56     LegendNANA
17:30 Legend Double Dagger 0.4 -2.0 84 3 19 10.0 100.58     Cloudy
18:30 Legend Double Dagger 0.2 -2.4 83 2 16 10.0 100.58     LegendNANA
19:30 Legend Double Dagger -0.2 -2.7 83 3 17 10.0 100.60   -5 LegendNANA
20:30 Legend Double Dagger -0.5 -2.9 84 1 15 10.0 100.58   -5 Mostly Cloudy
21:30 Legend Double Dagger -0.8 -2.7 87 0 17 10.0 100.59   -6 LegendNANA
22:30 Legend Double Dagger -0.8 -3.0 85 35 17 10.0 100.55   -6 LegendNANA
23:30 Legend Double Dagger -0.9 -3.4 83 35 21 10.0 100.50   -7 Mostly Cloudy

Notes on Data Quality.

Legend

  • E = Estimated
  • M = Missing
  • NA = Not Available
  • ‡ = Partner data that is not subject to review by the National Climate Archives
Date modified: